SWA127 KTPA-KMSY

Flight info

Callsign SWA127
Flight time N/A
Altitude 36000
Route DORMR3 FROOT ROZZI Y280 REDFN HRV
Aircraft B737/M-SDE2E3FGHIRWXY/LB1

Departure

Time 2026-04-30 22:00
Airport Tampa International Airport (KTPA)

Arrival

Time N/A
Airport Louis Armstrong New Orleans International Airport (KMSY)
Time Latitude Longitude Altitude Speed Heading
2026-04-30 21:37 27.98260 -82.53126 42 ft 0 kts 271°
2026-04-30 21:51 27.98260 -82.53112 42 ft 4 kts 271°
2026-04-30 21:51 27.98259 -82.53082 42 ft 2 kts 271°
2026-04-30 21:51 27.98257 -82.53058 37 ft 4 kts 297°
2026-04-30 21:52 27.98242 -82.53045 40 ft 3 kts
2026-04-30 21:52 27.98224 -82.53046 41 ft 0 kts
2026-04-30 21:54 27.98226 -82.53046 41 ft 3 kts
2026-04-30 21:54 27.98304 -82.53049 41 ft 16 kts
2026-04-30 21:54 27.98403 -82.53092 42 ft 15 kts 317°
2026-04-30 21:54 27.98488 -82.53144 41 ft 14 kts 359°
2026-04-30 21:55 27.98580 -82.53143 41 ft 12 kts
2026-04-30 21:55 27.98637 -82.53188 45 ft 11 kts 275°
2026-04-30 21:55 27.98639 -82.53275 52 ft 11 kts 272°
2026-04-30 21:55 27.98644 -82.53360 60 ft 11 kts 275°
2026-04-30 21:56 27.98648 -82.53442 66 ft 10 kts 271°
2026-04-30 21:56 27.98651 -82.53526 63 ft 13 kts 272°
2026-04-30 21:56 27.98655 -82.53656 52 ft 20 kts 272°
2026-04-30 21:56 27.98660 -82.53832 45 ft 23 kts 272°
2026-04-30 21:57 27.98670 -82.54000 46 ft 18 kts 296°
2026-04-30 21:57 27.98744 -82.54026 47 ft 17 kts 353°
2026-04-30 21:57 27.98862 -82.54022 47 ft 17 kts
2026-04-30 21:57 27.98976 -82.54019 46 ft 16 kts 359°
2026-04-30 21:58 27.99085 -82.54020 44 ft 15 kts
2026-04-30 21:58 27.99191 -82.54017 45 ft 15 kts
2026-04-30 21:58 27.99292 -82.54013 45 ft 14 kts
2026-04-30 21:58 27.99345 -82.54052 43 ft 9 kts 290°
2026-04-30 21:59 27.99345 -82.54120 45 ft 8 kts 234°
2026-04-30 21:59 27.99242 -82.54137 46 ft 39 kts 181°
2026-04-30 21:59 27.98731 -82.54154 51 ft 105 kts 181°
2026-04-30 22:00 27.96696 -82.54250 510 ft 169 kts 185°
2026-04-30 22:00 27.94167 -82.54889 1236 ft 206 kts 208°
2026-04-30 22:00 27.93110 -82.56010 1618 ft 217 kts 241°
2026-04-30 22:01 27.92326 -82.57554 2025 ft 237 kts 242°
2026-04-30 22:01 27.91479 -82.59214 2422 ft 249 kts 242°
2026-04-30 22:01 27.90607 -82.60893 2869 ft 248 kts 240°
2026-04-30 22:01 27.89711 -82.62591 3626 ft 254 kts 241°
2026-04-30 22:02 27.88798 -82.64304 4550 ft 253 kts 240°
2026-04-30 22:02 27.87864 -82.66041 5278 ft 261 kts 240°
2026-04-30 22:02 27.86908 -82.67810 6077 ft 266 kts 240°
2026-04-30 22:02 27.85933 -82.69603 6897 ft 269 kts 240°
2026-04-30 22:03 27.84948 -82.71408 7772 ft 270 kts 240°
2026-04-30 22:03 27.83970 -82.73197 8643 ft 273 kts 241°
2026-04-30 22:03 27.82967 -82.75028 9595 ft 275 kts 242°
2026-04-30 22:03 27.81951 -82.76882 10453 ft 283 kts 242°
2026-04-30 22:04 27.80872 -82.78858 10729 ft 310 kts 242°
2026-04-30 22:04 27.79690 -82.81018 10925 ft 335 kts 241°
2026-04-30 22:04 27.77106 -82.85711 11993 ft 361 kts 240°
2026-04-30 22:05 27.75771 -82.88127 12872 ft 364 kts 241°
2026-04-30 22:05 27.74421 -82.90574 13631 ft 369 kts 241°
2026-04-30 22:05 27.73055 -82.93051 14297 ft 373 kts 241°
2026-04-30 22:05 27.71681 -82.95541 14999 ft 375 kts 241°
2026-04-30 22:06 27.70313 -82.98021 15703 ft 378 kts 241°
2026-04-30 22:06 27.67583 -83.03140 17074 ft 382 kts 248°
2026-04-30 22:06 27.66627 -83.05931 17744 ft 382 kts 256°
2026-04-30 22:07 27.66048 -83.08851 18384 ft 381 kts 265°
2026-04-30 22:07 27.65767 -83.11832 18940 ft 384 kts 266°
2026-04-30 22:07 27.65519 -83.14839 19450 ft 387 kts 266°
2026-04-30 22:07 27.65267 -83.17874 19965 ft 390 kts 266°
2026-04-30 22:08 27.64999 -83.20933 20489 ft 392 kts 266°
2026-04-30 22:08 27.64718 -83.24005 20968 ft 395 kts 266°
2026-04-30 22:08 27.64429 -83.27099 21425 ft 399 kts 265°
2026-04-30 22:08 27.64136 -83.30223 21871 ft 401 kts 265°
2026-04-30 22:09 27.63841 -83.33362 22300 ft 404 kts 265°
2026-04-30 22:09 27.63542 -83.36531 22714 ft 407 kts 265°
2026-04-30 22:09 27.63243 -83.39711 23118 ft 410 kts 265°
2026-04-30 22:09 27.62940 -83.42916 23499 ft 412 kts 265°
2026-04-30 22:10 27.62636 -83.46137 23827 ft 414 kts 265°
2026-04-30 22:10 27.62330 -83.49375 24152 ft 416 kts 265°
2026-04-30 22:10 27.62021 -83.52626 24465 ft 418 kts 265°
2026-04-30 22:10 27.61711 -83.55891 24789 ft 420 kts 265°
2026-04-30 22:11 27.61083 -83.62462 25415 ft 423 kts 265°
2026-04-30 22:11 27.60766 -83.65770 25696 ft 426 kts 265°
2026-04-30 22:11 27.60447 -83.69094 25977 ft 428 kts 265°
2026-04-30 22:12 27.60129 -83.72392 26260 ft 430 kts 265°
2026-04-30 22:12 27.59806 -83.75748 26540 ft 432 kts 265°
2026-04-30 22:12 27.59479 -83.79119 26817 ft 433 kts 265°
2026-04-30 22:12 27.59151 -83.82502 27087 ft 435 kts 265°
2026-04-30 22:13 27.58819 -83.85903 27346 ft 437 kts 265°
2026-04-30 22:13 27.58486 -83.89325 27604 ft 439 kts 265°
2026-04-30 22:13 27.58151 -83.92751 27858 ft 441 kts 265°
2026-04-30 22:13 27.57813 -83.96201 28127 ft 442 kts 265°
2026-04-30 22:14 27.57474 -83.99657 28381 ft 444 kts 265°
2026-04-30 22:14 27.57132 -84.03123 28657 ft 444 kts 265°
2026-04-30 22:14 27.56791 -84.06586 29025 ft 443 kts 265°
2026-04-30 22:14 27.56454 -84.09989 29427 ft 442 kts 265°
2026-04-30 22:15 27.56116 -84.13432 29843 ft 440 kts 266°
2026-04-30 22:15 27.56013 -84.16877 30192 ft 439 kts 273°
2026-04-30 22:15 27.56327 -84.20285 30539 ft 437 kts 281°
2026-04-30 22:15 27.56890 -84.23639 30953 ft 435 kts 281°
2026-04-30 22:16 27.57458 -84.26984 31375 ft 433 kts 281°
2026-04-30 22:16 27.58020 -84.30312 31783 ft 432 kts 281°
2026-04-30 22:17 27.59648 -84.40206 33061 ft 427 kts 281°
2026-04-30 22:17 27.60183 -84.43508 33470 ft 426 kts 281°
2026-04-30 22:17 27.61239 -84.50065 34236 ft 423 kts 281°
2026-04-30 22:18 27.61763 -84.53328 34607 ft 421 kts 281°
2026-04-30 22:18 27.62791 -84.59751 35390 ft 415 kts 282°
2026-04-30 22:19 27.63818 -84.66169 35725 ft 419 kts 282°
2026-04-30 22:19 27.64335 -84.69408 35747 ft 419 kts 281°
2026-04-30 22:20 27.65863 -84.79025 35745 ft 411 kts 281°
2026-04-30 22:20 27.67367 -84.88521 35748 ft 409 kts 281°
2026-04-30 22:21 27.68358 -84.94805 35748 ft 409 kts 281°
2026-04-30 22:21 27.69353 -85.01136 35750 ft 409 kts 281°
2026-04-30 22:22 27.70345 -85.07460 35752 ft 410 kts 281°
2026-04-30 22:22 27.71334 -85.13791 35745 ft 410 kts 281°
2026-04-30 22:23 27.72323 -85.20141 35749 ft 410 kts 281°
2026-04-30 22:23 27.73304 -85.26452 35749 ft 410 kts 281°
2026-04-30 22:24 27.74816 -85.32663 35740 ft 410 kts 294°
2026-04-30 22:24 27.77251 -85.38455 35743 ft 410 kts 295°
2026-04-30 22:25 27.79716 -85.44283 35741 ft 410 kts 294°
2026-04-30 22:25 27.82160 -85.50116 35742 ft 410 kts 294°
2026-04-30 22:26 27.85794 -85.58848 35745 ft 410 kts 294°
2026-04-30 22:27 27.88220 -85.64698 35743 ft 410 kts 294°
2026-04-30 22:27 27.91833 -85.73425 35741 ft 410 kts 294°
2026-04-30 22:28 27.95450 -85.82178 35745 ft 410 kts 294°
2026-04-30 22:29 28.00267 -85.93867 35748 ft 409 kts 294°
2026-04-30 22:31 28.08662 -86.14319 35741 ft 409 kts 294°
2026-04-30 22:32 28.14619 -86.28896 35741 ft 408 kts 294°
2026-04-30 22:33 28.20564 -86.43497 35740 ft 407 kts 294°
2026-04-30 22:34 28.24104 -86.52219 35912 ft 408 kts 293°
2026-04-30 22:35 28.26476 -86.58072 35933 ft 407 kts 293°
2026-04-30 22:36 28.32201 -86.72708 35942 ft 404 kts 288°
2026-04-30 22:37 28.35696 -86.84774 35941 ft 403 kts 287°
2026-04-30 22:38 28.39208 -86.96874 35944 ft 404 kts 287°
2026-04-30 22:39 28.41854 -87.05976 35945 ft 404 kts 287°
2026-04-30 22:40 28.47124 -87.24177 35943 ft 405 kts 287°
2026-04-30 22:41 28.51515 -87.39419 35943 ft 405 kts 287°
2026-04-30 22:43 28.57555 -87.60506 35939 ft 405 kts 286°
2026-04-30 22:44 28.71371 -88.09268 35930 ft 403 kts 286°
2026-04-30 22:45 28.93079 -88.76694 35946 ft 413 kts 307°
2026-04-30 22:47 29.37848 -89.36349 35923 ft 411 kts 305°
2026-04-30 22:47 29.50005 -89.52743 34014 ft 418 kts 305°
2026-04-30 22:48 29.53777 -89.57844 32167 ft 423 kts 305°
2026-04-30 22:49 29.59544 -89.65649 29597 ft 427 kts 306°
2026-04-30 22:49 29.65213 -89.73331 27472 ft 412 kts 306°
2026-04-30 22:50 29.72443 -89.83163 24841 ft 395 kts 307°
2026-04-30 22:51 29.75966 -89.87965 23530 ft 389 kts 307°
2026-04-30 22:51 29.79430 -89.92690 22086 ft 382 kts 307°
2026-04-30 22:52 29.81132 -89.95011 21428 ft 377 kts 307°
2026-04-30 22:52 29.84327 -89.99683 20163 ft 365 kts 299°
2026-04-30 22:53 29.86373 -90.04912 18931 ft 354 kts 287°
2026-04-30 22:53 29.87872 -90.10257 17589 ft 348 kts 286°
2026-04-30 22:53 29.88606 -90.12895 16979 ft 342 kts 286°
2026-04-30 22:54 29.90042 -90.18011 15791 ft 334 kts 285°
2026-04-30 22:55 29.92173 -90.25560 14039 ft 326 kts 285°
2026-04-30 22:55 29.93574 -90.30520 12784 ft 323 kts 285°
2026-04-30 22:56 29.94956 -90.35419 11642 ft 319 kts 285°
2026-04-30 22:56 29.96398 -90.42589 10724 ft 297 kts 270°
2026-04-30 22:57 29.96302 -90.47257 9935 ft 281 kts 267°
2026-04-30 22:57 29.96146 -90.51523 9396 ft 253 kts 272°
2026-04-30 22:58 29.97100 -90.55242 8866 ft 233 kts 288°
2026-04-30 22:59 29.98791 -90.60324 7457 ft 223 kts 289°
2026-04-30 22:59 30.00772 -90.65108 5999 ft 225 kts 321°